TimeCST,TemperatureF,Dew PointF,Humidity,Sea Level PressureIn,VisibilityMPH,Wind Direction,Wind SpeedMPH,Gust SpeedMPH,PrecipitationIn,Events,Conditions,WindDirDegrees,DateUTC
12:15 AM,15.8,14.0,93,30.07,10.0,NNW,13.8,-,N/A,,Overcast,340,2014-03-01 06:15:00
12:35 AM,15.8,14.0,93,30.07,10.0,North,15.0,-,N/A,,Overcast,350,2014-03-01 06:35:00
12:55 AM,15.8,12.2,86,30.07,10.0,NNW,18.4,-,N/A,,Overcast,340,2014-03-01 06:55:00
1:15 AM,14.0,10.4,86,30.08,10.0,NNW,18.4,24.2,N/A,,Overcast,340,2014-03-01 07:15:00
1:35 AM,14.0,10.4,86,30.08,10.0,North,20.7,26.5,N/A,,Overcast,350,2014-03-01 07:35:00
1:55 AM,14.0,10.4,86,30.10,10.0,NNW,16.1,23.0,N/A,,Overcast,340,2014-03-01 07:55:00
2:15 AM,14.0,8.6,79,30.09,10.0,North,17.3,24.2,N/A,,Overcast,360,2014-03-01 08:15:00
2:35 AM,14.0,8.6,79,30.10,10.0,North,17.3,-,N/A,,Overcast,350,2014-03-01 08:35:00
2:55 AM,14.0,8.6,79,30.13,10.0,NNW,15.0,-,N/A,,Overcast,340,2014-03-01 08:55:00
3:15 AM,14.0,8.6,79,30.13,10.0,NNW,13.8,20.7,N/A,,Overcast,340,2014-03-01 09:15:00
3:35 AM,14.0,8.6,79,30.14,9.0,North,13.8,-,N/A,,Overcast,350,2014-03-01 09:35:00
3:55 AM,12.2,6.8,79,30.14,10.0,North,19.6,-,N/A,,Overcast,350,2014-03-01 09:55:00
4:15 AM,12.2,5.0,73,30.16,10.0,North,15.0,23.0,N/A,,Overcast,350,2014-03-01 10:15:00
4:35 AM,12.2,5.0,73,30.16,10.0,North,16.1,24.2,N/A,,Overcast,350,2014-03-01 10:35:00
4:55 AM,12.2,3.2,67,30.17,10.0,North,20.7,-,N/A,,Overcast,350,2014-03-01 10:55:00
5:15 AM,12.2,5.0,73,30.16,10.0,North,18.4,26.5,N/A,,Overcast,360,2014-03-01 11:15:00
5:35 AM,10.4,6.8,85,30.18,10.0,NNW,13.8,20.7,N/A,,Overcast,340,2014-03-01 11:35:00
5:55 AM,10.4,6.8,85,30.19,10.0,North,16.1,-,N/A,,Overcast,350,2014-03-01 11:55:00
6:15 AM,10.4,6.8,85,30.21,10.0,NNW,15.0,-,N/A,,Overcast,340,2014-03-01 12:15:00
6:30 AM,10.4,6.8,85,30.21,10.0,North,17.3,-,N/A,,Overcast,350,2014-03-01 12:30:00
6:55 AM,10.4,5.0,79,30.23,10.0,North,17.3,-,N/A,,Overcast,360,2014-03-01 12:55:00
7:15 AM,8.6,3.2,79,30.22,10.0,North,20.7,-,N/A,,Mostly Cloudy,360,2014-03-01 13:15:00
7:35 AM,8.6,3.2,79,30.24,9.0,North,18.4,24.2,N/A,,Partly Cloudy,350,2014-03-01 13:35:00
7:55 AM,8.6,3.2,79,30.25,10.0,North,16.1,-,N/A,,Clear,350,2014-03-01 13:55:00
8:15 AM,8.6,1.4,73,30.27,10.0,North,15.0,-,N/A,,Clear,350,2014-03-01 14:15:00
8:35 AM,8.6,1.4,73,30.29,4.0,North,16.1,-,N/A,Snow,Light Snow,350,2014-03-01 14:35:00
8:55 AM,6.8,1.4,79,30.29,1.8,North,15.0,-,N/A,Snow,Light Snow,350,2014-03-01 14:55:00
9:15 AM,6.8,1.4,79,30.29,1.5,North,17.3,-,N/A,Snow,Light Snow,360,2014-03-01 15:15:00
9:35 AM,6.8,1.4,79,30.30,6.0,North,15.0,-,N/A,Snow,Light Snow,350,2014-03-01 15:35:00
9:55 AM,6.8,1.4,79,30.30,5.0,North,16.1,-,N/A,Snow,Light Snow,360,2014-03-01 15:55:00
10:15 AM,6.8,1.4,79,30.29,3.0,North,16.1,-,N/A,Snow,Light Snow,360,2014-03-01 16:15:00
10:35 AM,6.8,1.4,79,30.31,2.5,North,15.0,-,N/A,Snow,Light Snow,350,2014-03-01 16:35:00
10:55 AM,6.8,-0.4,72,30.32,3.0,North,12.7,-,N/A,,Haze,360,2014-03-01 16:55:00
11:15 AM,6.8,1.4,79,30.34,0.5,NNW,16.1,-,N/A,Snow,Light Snow,330,2014-03-01 17:15:00
11:35 AM,5.0,1.4,85,30.35,0.5,NNW,17.3,-,N/A,Snow,Light Snow,340,2014-03-01 17:35:00
11:55 AM,5.0,1.4,85,30.35,0.5,NNW,18.4,-,N/A,Snow,Light Snow,330,2014-03-01 17:55:00
12:15 PM,5.0,1.4,85,30.35,0.2,NNW,19.6,-,N/A,Snow,Light Snow,330,2014-03-01 18:15:00
12:35 PM,5.0,1.4,85,30.36,0.2,NNW,18.4,24.2,N/A,Snow,Snow,330,2014-03-01 18:35:00
12:55 PM,5.0,-0.4,78,30.35,0.2,NNW,18.4,25.3,N/A,Snow,Snow,330,2014-03-01 18:55:00
1:15 PM,5.0,-0.4,78,30.33,0.5,NNW,17.3,25.3,N/A,Snow,Light Snow,330,2014-03-01 19:15:00
1:35 PM,5.0,-0.4,78,30.32,1.0,NNW,19.6,-,N/A,Snow,Light Snow,340,2014-03-01 19:35:00
1:55 PM,5.0,-0.4,78,30.32,1.5,NNW,17.3,24.2,N/A,Snow,Light Snow,340,2014-03-01 19:55:00
2:15 PM,3.2,-0.4,85,30.33,1.2,NNW,19.6,25.3,N/A,Snow,Light Snow,340,2014-03-01 20:15:00
2:35 PM,3.2,-0.4,85,30.34,1.2,NNW,17.3,23.0,N/A,Snow,Light Snow,340,2014-03-01 20:35:00
2:55 PM,3.2,-2.2,78,30.32,0.8,NNW,17.3,24.2,N/A,Snow,Light Snow,340,2014-03-01 20:55:00
3:15 PM,3.2,-2.2,78,30.33,1.2,North,13.8,21.9,N/A,Snow,Light Snow,350,2014-03-01 21:15:00
3:35 PM,3.2,-2.2,78,30.36,1.5,NNW,18.4,25.3,N/A,Snow,Light Snow,340,2014-03-01 21:35:00
3:55 PM,3.2,-2.2,78,30.35,2.0,North,18.4,-,N/A,Snow,Light Snow,350,2014-03-01 21:55:00
4:15 PM,1.4,-4.0,78,30.34,1.2,NNW,16.1,23.0,N/A,Snow,Light Snow,340,2014-03-01 22:15:00
4:35 PM,1.4,-4.0,78,30.33,2.0,NNW,15.0,-,N/A,Snow,Light Snow,340,2014-03-01 22:35:00
4:55 PM,1.4,-4.0,78,30.35,1.2,NNW,15.0,23.0,N/A,Snow,Light Snow,340,2014-03-01 22:55:00
5:15 PM,1.4,-4.0,78,30.36,0.8,NNW,15.0,21.9,N/A,Snow,Light Snow,340,2014-03-01 23:15:00
5:35 PM,1.4,-4.0,78,30.37,0.5,NNW,17.3,23.0,N/A,Snow,Light Snow,340,2014-03-01 23:35:00
5:55 PM,1.4,-4.0,78,30.36,0.5,NNW,13.8,20.7,N/A,Snow,Light Snow,340,2014-03-01 23:55:00
6:15 PM,1.4,-4.0,78,30.37,2.5,NNW,17.3,-,N/A,Snow,Light Snow,340,2014-03-02 00:15:00
6:35 PM,1.4,-4.0,78,30.38,5.0,NNW,15.0,21.9,N/A,Snow,Light Snow,340,2014-03-02 00:35:00
6:55 PM,1.4,-5.8,72,30.39,6.0,NNW,16.1,-,N/A,,Haze,330,2014-03-02 00:55:00
7:15 PM,1.4,-5.8,72,30.40,9.0,NNW,18.4,-,N/A,,Overcast,330,2014-03-02 01:15:00
7:35 PM,-0.4,-5.8,78,30.39,9.0,NNW,20.7,-,N/A,,Overcast,340,2014-03-02 01:35:00
7:55 PM,-0.4,-7.6,72,30.40,6.0,NNW,18.4,-,N/A,Snow,Light Snow,340,2014-03-02 01:55:00
8:15 PM,-0.4,-7.6,72,30.40,9.0,NNW,21.9,-,N/A,,Mostly Cloudy,330,2014-03-02 02:15:00
8:35 PM,-0.4,-7.6,72,30.41,7.0,NNW,18.4,25.3,N/A,,Overcast,340,2014-03-02 02:35:00
8:55 PM,-0.4,-7.6,72,30.41,10.0,NNW,18.4,-,N/A,,Overcast,340,2014-03-02 02:55:00
9:15 PM,-0.4,-7.6,72,30.40,10.0,NNW,13.8,20.7,N/A,,Overcast,340,2014-03-02 03:15:00
9:35 PM,-0.4,-9.4,66,30.41,10.0,NNW,15.0,21.9,N/A,Snow,Light Snow,340,2014-03-02 03:35:00
9:55 PM,-0.4,-9.4,66,30.41,9.0,NNW,16.1,-,N/A,Snow,Light Snow,340,2014-03-02 03:55:00
10:15 PM,-0.4,-9.4,66,30.41,10.0,NNW,15.0,-,N/A,,Overcast,340,2014-03-02 04:15:00
10:35 PM,-0.4,-9.4,66,30.43,10.0,NNW,13.8,20.7,N/A,,Overcast,340,2014-03-02 04:35:00
10:55 PM,-0.4,-9.4,66,30.43,10.0,North,15.0,-,N/A,,Overcast,350,2014-03-02 04:55:00
11:15 PM,-0.4,-11.2,60,30.42,10.0,North,13.8,21.9,N/A,,Overcast,350,2014-03-02 05:15:00
11:35 PM,-0.4,-9.4,66,30.42,10.0,NNW,15.0,20.7,N/A,,Overcast,340,2014-03-02 05:35:00
11:55 PM,-0.4,-11.2,60,30.43,10.0,NNW,17.3,-,N/A,,Overcast,340,2014-03-02 05:55:00